1506664800.7,27206,15.19,74488.5,5.43,-37.69,-38.23,0,*7F
1506664801.94,27207,15.19,74484.3,5.43,-37.33,-37.93,0,*75
1506664803.17,27208,15.19,74484.8,5.45,-37.63,-38.17,0,*7A
1506664804.42,27209,15.19,74484.8,5.43,-37.87,-38.67,0,*70
1506664805.64,27210,15.19,74486.8,5.43,-37.75,-38.43,0,*73
1506664806.9,27211,15.19,74488.0,5.43,-37.87,-38.49,0,*75
1506664808.17,27212,15.13,74484.5,5.43,-37.69,-38.49,0,*76
1506664809.43,27213,15.19,74486.5,5.43,-37.57,-38.23,0,*76
1506664810.65,27214,15.13,74484.8,5.45,-37.63,-38.35,0,*77
1506664811.87,27215,15.19,74486.8,5.45,-37.51,-38.17,0,*77
1506664813.08,27216,15.19,74484.8,5.45,-37.87,-38.55,0,*79
1506664814.29,27217,15.19,74486.5,5.49,-37.33,-37.93,0,*7E
1506664815.54,27218,15.19,74488.5,5.49,-37.09,-37.81,0,*7B
1506664816.77,27219,15.13,74482.0,5.45,-37.03,-37.63,0,*70
1506664817.99,27220,15.19,74484.3,5.45,-37.27,-37.99,0,*79
1506664819.24,27221,15.19,74484.0,5.49,-37.09,-37.81,0,*71
1506664820.49,27222,15.19,74484.5,5.49,-37.09,-37.69,0,*74
1506664821.73,27223,15.19,74484.5,5.49,-37.09,-37.81,0,*73
1506664822.93,27224,15.19,74484.5,5.49,-37.27,-37.87,0,*7E
1506664824.16,27225,15.19,74484.3,5.51,-37.03,-37.75,0,*7D
1506664825.41,27226,15.19,74484.5,5.51,-36.97,-37.63,0,*75
1506664826.64,27227,15.19,74486.5,5.51,-36.85,-37.57,0,*70
1506664827.88,27228,15.13,74484.5,5.53,-36.79,-37.51,0,*78
1506664829.08,27229,15.19,74486.5,5.53,-36.97,-37.57,0,*7F
1506664830.3,27230,15.13,74482.8,5.53,-36.73,-37.39,0,*75
1506664831.52,27231,15.13,74480.8,5.53,-36.91,-37.57,0,*70
1506664832.81,27232,15.19,74484.3,5.57,-37.21,-37.63,0,*7A
1506664834.06,27233,15.19,74486.5,5.57,-37.33,-37.81,0,*74
1506664835.33,27234,15.19,74486.5,5.57,-37.21,-37.69,0,*76
1506664836.59,27235,15.19,74486.8,5.59,-37.09,-37.63,0,*79
1506664837.8,27236,15.19,74486.3,5.57,-37.03,-37.45,0,*7A
1506664839.03,27237,15.13,74486.0,5.59,-36.85,-37.51,0,*7F
1506664840.28,27238,15.19,74486.5,5.57,-37.27,-37.81,0,*7A
1506664841.5,27239,15.19,74490.5,5.59,-37.27,-37.69,0,*73
1506664842.71,27240,15.13,74486.8,5.59,-37.27,-37.87,0,*7D
1506664843.93,27241,15.19,74484.0,5.59,-37.27,-37.81,0,*7A
1506664845.16,27242,15.19,74484.0,5.59,-37.27,-37.81,0,*79
1506664846.41,27243,15.19,74488.5,5.59,-37.09,-37.69,0,*72
1506664847.65,27244,15.19,74486.0,5.59,-37.09,-37.69,0,*75
1506664848.92,27245,15.19,74486.3,5.61,-36.79,-37.39,0,*7C
1506664850.19,27246,15.19,74486.0,5.61,-36.79,-37.39,0,*7F
1506664851.39,27247,15.19,74490.8,5.63,-36.97,-37.57,0,*74
1506664852.61,27248,15.19,74488.0,5.63,-36.97,-37.39,0,*73
1506664853.84,27249,15.19,74488.0,5.63,-37.03,-37.63,0,*71
1506664855.09,27250,15.13,74486.0,5.67,-36.79,-37.39,0,*7E
1506664856.28,27251,15.19,74488.0,5.63,-37.03,-37.57,0,*7F
1506664857.51,27252,15.13,74484.3,5.63,-37.15,-37.63,0,*7C
1506664858.71,27253,15.19,74486.8,5.67,-37.15,-37.57,0,*7E
1506664859.9,27254,15.19,74488.3,5.67,-37.33,-37.87,0,*70
1506664861.13,27255,15.19,74486.3,5.67,-37.21,-37.75,0,*7F
1506664862.38,27256,15.19,74484.0,5.67,-37.69,-38.29,0,*76
1506664863.62,27257,15.13,74484.3,5.67,-37.51,-37.93,0,*72
1506664864.84,27258,15.13,74484.8,5.67,-37.39,-38.05,0,*73
1506664866.04,27259,15.19,74488.5,5.67,-37.33,-37.87,0,*7D
1506664867.26,27260,15.19,74488.8,5.67,-37.57,-38.23,0,*74
1506664868.5,27261,15.19,74484.5,5.67,-37.69,-38.11,0,*79
1506664869.74,27262,15.19,74486.8,5.69,-37.51,-38.17,0,*79
1506664870.96,27263,15.19,74484.5,5.67,-38.05,-38.67,0,*7F
1506664872.18,27264,15.13,74486.0,5.67,-38.23,-38.85,0,*70
1506664873.38,27265,15.19,74486.5,5.67,-37.75,-38.43,0,*77
1506664874.63,27266,15.13,74486.8,5.67,-37.63,-38.23,0,*75
1506664875.9,27267,15.19,74488.3,5.69,-37.69,-38.23,0,*70
1506664877.14,27268,15.19,74486.3,5.69,-37.51,-38.05,0,*70
1506664878.38,27269,15.13,74484.3,5.69,-37.33,-37.99,0,*7F
1506664879.63,27270,15.13,74484.0,5.69,-37.27,-37.99,0,*72
1506664880.9,27271,15.19,74486.0,5.69,-37.09,-37.51,0,*7B
1506664882.12,27272,15.19,74484.5,5.69,-37.33,-37.87,0,*7A
1506664883.34,27273,15.19,74488.3,5.71,-37.33,-37.99,0,*7D
1506664884.53,27274,15.19,74484.0,5.71,-37.33,-38.05,0,*70
1506664885.75,27275,15.19,74488.5,5.71,-37.27,-37.99,0,*7E
1506664886.99,27276,15.13,74484.3,5.69,-37.51,-38.17,0,*7C
1506664888.24,27277,15.19,74484.5,5.71,-37.69,-38.23,0,*78
1506664889.48,27278,15.19,74488.3,5.71,-37.99,-38.49,0,*74
1506664890.73,27279,15.19,74486.3,5.71,-37.63,-38.23,0,*7C
1506664891.95,27280,15.19,74486.3,5.71,-37.63,-38.35,0,*7D
1506664893.19,27281,15.19,74486.0,5.73,-37.57,-38.11,0,*7F
1506664894.43,27282,15.13,74484.5,5.73,-37.45,-37.99,0,*70
1506664895.68,27283,15.19,74484.3,5.73,-37.57,-38.29,0,*76
1506664896.9,27284,15.19,74486.8,5.71,-37.45,-37.99,0,*74
1506664898.08,27285,15.19,74490.3,5.71,-37.45,-38.05,0,*7F
1506664899.3,27286,15.19,74488.0,5.71,-37.39,-38.05,0,*77
1506664900.54,27287,15.19,74484.0,5.73,-37.45,-37.99,0,*75
1506664901.81,27288,15.19,74486.5,5.73,-37.39,-37.99,0,*71
1506664903.09,27289,15.19,74488.0,5.73,-37.39,-37.81,0,*79
1506664904.33,27290,15.19,74488.3,5.73,-37.27,-37.81,0,*7E
1506664905.55,27291,15.19,74486.3,5.71,-37.27,-37.81,0,*7D
1506664906.8,27292,15.19,74488.8,5.73,-37.09,-37.75,0,*7B
1506664908.02,27293,15.19,74486.0,5.75,-37.03,-37.63,0,*71
1506664909.24,27294,15.19,74488.0,5.75,-37.45,-38.11,0,*7E
1506664910.46,27295,15.19,74488.3,5.75,-37.57,-38.23,0,*7D
1506664911.68,27296,15.19,74486.3,5.75,-37.45,-38.11,0,*7C
1506664912.9,27297,15.13,74484.0,5.77,-36.97,-37.57,0,*7C
1506664914.12,27298,15.19,74488.3,5.77,-37.03,-37.57,0,*7F
1506664915.32,27299,15.19,74486.8,5.75,-37.27,-37.75,0,*7A
1506664916.57,27300,15.19,74488.8,5.75,-37.39,-37.99,0,*76
1506664917.79,27301,15.19,74490.5,5.75,-37.03,-37.51,0,*7A
1506664919.06,27302,15.19,74488.8,5.77,-36.91,-37.39,0,*7F
1506664920.28,27303,15.19,74488.5,5.77,-37.03,-37.57,0,*7C
1506664921.52,27304,15.19,74484.8,5.77,-37.15,-37.69,0,*71
1506664922.76,27305,15.19,74484.5,5.77,-37.33,-37.69,0,*74
1506664924.0,27306,15.13,74484.5,5.77,-37.57,-38.23,0,*74
1506664925.2,27307,15.19,74488.0,5.79,-37.33,-37.87,0,*78
1506664926.44,27308,15.19,74484.8,5.81,-37.45,-37.99,0,*7E
1506664927.71,27309,15.19,74484.8,5.77,-37.93,-38.49,0,*7F
1506664928.93,27310,15.19,74488.5,5.79,-37.51,-38.17,0,*7C
1506664930.2,27311,15.19,74488.0,5.77,-37.51,-38.11,0,*75
1506664931.44,27312,15.19,74488.0,5.77,-37.57,-38.23,0,*71
1506664932.7,27313,15.19,74490.0,5.77,-38.67,-39.29,0,*77
1506664933.95,27314,15.19,74484.3,5.77,-37.93,-38.55,0,*7E
1506664935.18,27315,15.19,74488.3,5.77,-37.87,-38.35,0,*7C
1506664936.4,27316,15.19,74488.0,5.75,-37.63,-38.35,0,*77
1506664937.64,27317,15.19,74488.8,5.77,-37.51,-38.05,0,*76
1506664938.88,27318,15.19,74486.8,5.77,-37.39,-38.05,0,*77
1506664940.12,27319,15.19,74490.5,5.77,-37.69,-38.35,0,*70
1506664941.31,27320,15.19,74488.0,5.79,-37.45,-38.05,0,*79
1506664942.5,27321,15.19,74484.3,5.79,-37.45,-38.17,0,*7B
1506664943.73,27322,15.19,74486.5,5.79,-37.33,-37.81,0,*79
1506664944.96,27323,15.19,74484.8,5.77,-37.15,-37.69,0,*74
1506664946.2,27324,15.19,74486.5,5.79,-37.21,-37.87,0,*7A
1506664947.39,27325,15.19,74490.0,5.79,-37.33,-37.87,0,*78
1506664948.61,27326,15.19,74486.5,5.79,-37.51,-38.17,0,*79
1506664949.83,27327,15.19,74488.0,5.79,-37.69,-38.43,0,*72
1506664951.02,27328,15.19,74486.3,5.79,-37.45,-38.05,0,*71
1506664952.25,27329,15.19,74484.8,5.81,-37.27,-37.87,0,*76
1506664953.49,27330,15.19,74486.5,5.81,-37.27,-37.81,0,*78
1506664954.73,27331,15.19,74488.0,5.81,-37.15,-37.69,0,*7E
1506664955.97,27332,15.19,74490.5,5.81,-37.27,-37.69,0,*7C
1506664957.21,27333,15.19,74488.8,5.81,-36.91,-37.33,0,*7E
1506664958.45,27334,15.19,74488.5,5.81,-36.91,-37.45,0,*78
1506664959.73,27335,15.19,74486.8,5.85,-37.09,-37.63,0,*79
1506664960.96,27336,15.19,74490.3,5.83,-37.03,-37.63,0,*76
1506664962.15,27337,15.19,74490.3,5.83,-36.85,-37.45,0,*7C
1506664963.37,27338,15.19,74488.8,5.85,-36.85,-37.27,0,*71
1506664964.61,27339,15.19,74486.8,5.85,-36.79,-37.27,0,*73
1506664965.82,27340,15.19,74488.8,5.85,-37.27,-37.75,0,*70
1506664967.04,27341,15.19,74486.3,5.85,-37.03,-37.45,0,*74
1506664968.29,27342,15.19,74484.8,5.85,-37.03,-37.63,0,*73
1506664969.57,27343,15.19,74490.0,5.89,-36.61,-37.21,0,*7D
1506664970.79,27344,15.19,74486.8,5.89,-36.85,-37.33,0,*73
1506664972.06,27345,15.19,74486.5,5.91,-37.09,-37.51,0,*7A
1506664973.26,27346,15.19,74488.5,5.91,-36.97,-37.45,0,*7A
1506664974.51,27347,15.19,74488.0,5.89,-37.15,-37.69,0,*77
1506664975.77,27348,15.19,74488.5,5.89,-37.21,-37.87,0,*7F
1506664977.01,27349,15.19,74484.8,5.93,-37.33,-37.87,0,*76
1506664978.26,27350,15.19,74486.5,5.89,-37.33,-37.93,0,*70
1506664979.5,27351,15.19,74484.3,5.91,-37.27,-37.81,0,*7E
1506664980.74,27352,15.19,74486.3,5.89,-37.51,-38.05,0,*76
1506664982.0,27353,15.19,74490.5,5.93,-37.33,-37.99,0,*72
1506664983.27,27354,15.19,74486.3,5.93,-37.27,-37.99,0,*70
1506664984.52,27355,15.19,74484.8,5.93,-37.45,-38.11,0,*7A
1506664985.81,27356,15.19,74484.0,5.93,-37.51,-38.23,0,*7D
1506664987.07,27357,15.19,74486.0,5.91,-37.69,-38.23,0,*75
1506664988.33,27358,15.19,74486.3,5.91,-37.63,-38.23,0,*70
1506664989.54,27359,15.19,74486.8,5.91,-37.15,-37.87,0,*71
1506664990.77,27360,15.19,74486.3,5.91,-37.33,-37.93,0,*7A
1506664992.05,27361,15.19,74486.5,5.93,-37.51,-38.11,0,*78
1506664993.29,27362,15.19,74488.5,5.93,-37.27,-37.87,0,*7A
1506664994.53,27363,15.19,74488.8,5.93,-37.27,-37.87,0,*7B
1506664995.81,27364,15.19,74484.8,5.93,-37.69,-38.11,0,*76
1506664997.07,27365,15.19,74484.5,5.93,-37.33,-38.11,0,*78
1506664998.27,27366,15.19,74490.0,5.95,-37.45,-38.05,0,*79
1506664999.5,27367,15.19,74484.5,5.95,-37.63,-38.17,0,*7F
1506665000.79,27368,15.19,74486.3,5.93,-37.69,-38.23,0,*7B
1506665002.02,27369,15.19,74490.3,5.93,-38.05,-38.61,0,*79
1506665003.28,27370,15.19,74490.3,5.93,-38.05,-38.79,0,*78
1506665004.57,27371,15.19,74486.3,5.93,-37.51,-38.23,0,*78
1506665005.83,27372,15.19,74484.8,5.93,-37.33,-37.99,0,*71
1506665007.06,27373,15.19,74488.5,5.93,-37.45,-38.05,0,*7B
1506665008.29,27374,15.19,74486.0,5.95,-37.21,-37.75,0,*70
1506665009.56,27375,15.19,74486.5,5.93,-37.27,-37.81,0,*7A
1506665010.83,27376,15.19,74488.0,5.95,-37.21,-37.63,0,*75
1506665012.11,27377,15.19,74486.3,5.93,-37.09,-37.81,0,*74
1506665013.32,27378,15.19,74486.8,5.95,-37.57,-38.17,0,*76
1506665014.59,27379,15.19,74486.3,5.95,-37.81,-38.23,0,*7B
1506665015.87,27380,15.19,74486.3,5.93,-37.51,-38.11,0,*77
1506665017.14,27381,15.19,74484.5,5.95,-37.21,-37.63,0,*7D
1506665018.4,27382,15.19,74484.8,5.93,-37.33,-37.81,0,*77
1506665019.61,27383,15.19,74486.3,5.95,-36.85,-37.57,0,*77
1506665020.87,27384,15.19,74484.8,5.97,-37.03,-37.63,0,*7A
1506665022.1,27385,15.19,74484.0,5.97,-36.85,-37.45,0,*70
1506665023.33,27386,15.19,74484.8,5.97,-36.85,-37.45,0,*73
1506665024.56,27387,15.19,74484.5,5.97,-36.85,-37.57,0,*71
1506665025.8,27388,15.19,74486.3,5.99,-36.85,-37.39,0,*78
1506665027.01,27389,15.19,74484.0,5.99,-36.85,-37.33,0,*73
1506665028.23,27390,15.19,74488.8,5.99,-36.79,-37.33,0,*78
1506665029.49,27391,15.19,74484.3,5.99,-36.79,-37.39,0,*73
1506665030.73,27392,15.19,74486.8,5.99,-36.97,-37.51,0,*7E
1506665031.96,27393,15.13,74484.3,5.99,-36.97,-37.39,0,*71
1506665033.2,27394,15.19,74486.5,5.99,-36.85,-37.51,0,*7B
1506665034.44,27395,15.19,74488.8,5.99,-36.85,-37.39,0,*74
1506665035.72,27396,15.19,74484.3,6.01,-36.61,-37.09,0,*7C
1506665036.97,27397,15.19,74486.5,6.01,-36.61,-37.27,0,*71
1506665038.21,27398,15.19,74484.8,6.01,-37.15,-37.87,0,*76
1506665039.47,27399,15.19,74486.8,6.01,-36.97,-37.51,0,*77
1506665040.72,27400,15.13,74482.8,6.01,-36.91,-37.45,0,*73
1506665041.95,27401,15.19,74486.3,6.03,-36.91,-37.33,0,*71
1506665043.24,27402,15.19,74486.0,6.01,-37.09,-37.51,0,*74
1506665044.47,27403,15.19,74490.8,6.05,-37.27,-37.87,0,*76
1506665045.73,27404,15.19,74488.3,6.05,-37.39,-37.87,0,*7E
1506665046.98,27405,15.19,74488.0,6.01,-37.63,-38.05,0,*71
1506665048.22,27406,15.19,74484.8,6.03,-37.33,-37.81,0,*76
1506665049.47,27407,15.19,74484.5,6.01,-37.33,-37.69,0,*73
1506665050.7,27408,15.19,74488.0,6.01,-37.33,-37.87,0,*7C
1506665051.91,27409,15.19,74488.5,6.03,-38.05,-38.61,0,*72
1506665053.19,27410,15.19,74486.8,6.01,-37.51,-37.93,0,*74
1506665054.44,27411,15.19,74486.5,6.03,-37.51,-38.11,0,*72
1506665055.7,27412,15.19,74484.0,6.03,-37.69,-38.23,0,*7B
1506665056.91,27413,15.19,74484.5,6.03,-38.05,-38.61,0,*79
1506665058.15,27414,15.19,74486.0,6.01,-37.27,-37.87,0,*74
1506665059.42,27415,15.19,74482.5,6.03,-37.81,-38.29,0,*70
1506665060.7,27416,15.19,74484.5,6.01,-37.63,-38.23,0,*77
1506665061.92,27417,15.19,74486.8,6.01,-37.33,-38.05,0,*77
1506665063.19,27418,15.19,74486.8,6.03,-37.09,-37.63,0,*7C
1506665064.42,27419,15.19,74486.5,6.05,-36.85,-37.45,0,*7A
1506665065.62,27420,15.19,74486.8,6.03,-36.97,-37.45,0,*75
1506665066.85,27421,15.19,74486.5,6.03,-36.79,-37.33,0,*75
1506665068.09,27422,15.19,74486.3,6.03,-36.97,-37.51,0,*72
1506665069.32,27423,15.19,74486.8,6.07,-37.33,-37.81,0,*75
1506665070.58,27424,15.19,74486.8,6.05,-37.21,-37.75,0,*78
1506665071.81,27425,15.19,74484.0,6.05,-37.03,-37.45,0,*7A
1506665073.04,27426,15.19,74488.8,6.07,-37.03,-37.69,0,*75
1506665074.25,27427,15.19,74488.3,6.07,-37.15,-37.75,0,*7E
1506665075.5,27428,15.19,74486.0,6.05,-37.63,-38.05,0,*7A
1506665076.76,27429,15.19,74488.5,6.05,-37.27,-37.81,0,*78
1506665077.97,27430,15.19,74484.8,6.07,-37.33,-37.75,0,*7C
1506665079.2,27431,15.19,74484.5,6.05,-37.45,-37.87,0,*73
1506665080.44,27432,15.19,74484.8,6.07,-37.33,-37.81,0,*75
1506665081.7,27433,15.19,74484.0,6.05,-37.09,-37.75,0,*74
1506665082.95,27434,15.19,74484.0,6.05,-37.27,-37.81,0,*74
1506665084.19,27435,15.19,74490.0,6.05,-37.27,-37.75,0,*7E
1506665085.44,27436,15.19,74484.5,6.07,-37.51,-38.11,0,*73
1506665086.7,27437,15.19,74484.3,6.07,-37.51,-38.11,0,*72
1506665087.96,27438,15.19,74486.3,6.07,-37.51,-37.93,0,*78
1506665089.22,27439,15.19,74484.0,6.07,-37.39,-37.93,0,*77
1506665090.48,27440,15.19,74484.0,6.05,-37.39,-37.87,0,*7E
1506665091.73,27441,15.19,74488.3,6.05,-37.45,-37.93,0,*71
1506665092.99,27442,15.19,74488.0,6.05,-37.45,-37.99,0,*78
1506665094.21,27443,15.19,74484.0,6.05,-37.45,-38.17,0,*70
1506665095.48,27444,15.19,74484.0,6.09,-37.21,-37.75,0,*72
1506665096.72,27445,15.19,74484.5,6.07,-37.15,-37.81,0,*71
1506665097.93,27446,15.19,74486.5,6.07,-37.03,-37.75,0,*7E
1506665099.17,27447,15.19,74484.3,6.07,-36.97,-37.39,0,*7B
1506665100.43,27448,15.19,74484.5,6.07,-36.79,-37.51,0,*7A
1506665101.67,27449,15.19,74486.5,6.07,-36.85,-37.51,0,*78
1506665102.93,27450,15.19,74490.5,6.09,-36.97,-37.51,0,*7D
1506665104.16,27451,15.19,74490.0,6.09,-37.27,-37.75,0,*70
1506665105.43,27452,15.19,74488.0,6.09,-36.85,-37.39,0,*72
1506665106.71,27453,15.19,74486.3,6.13,-36.91,-37.51,0,*73
1506665107.97,27454,15.19,74486.5,6.09,-36.97,-37.39,0,*77
1506665109.26,27455,15.19,74486.0,6.13,-36.91,-37.63,0,*74
1506665110.51,27456,15.19,74486.5,6.09,-37.03,-37.69,0,*7C
1506665111.76,27457,15.19,74486.0,6.13,-36.91,-37.45,0,*72
1506665113.01,27458,15.19,74490.0,6.13,-37.27,-37.69,0,*7F
1506665114.26,27459,15.19,74488.0,6.09,-36.79,-37.33,0,*70
1506665115.51,27460,15.19,74490.0,6.13,-36.91,-37.45,0,*76
1506665116.74,27461,15.19,74486.8,6.15,-36.91,-37.33,0,*70
1506665117.94,27462,15.19,74486.8,6.15,-36.73,-37.45,0,*7E
1506665119.16,27463,15.19,74486.3,6.15,-36.79,-37.33,0,*74
1506665120.42,27464,15.19,74486.5,6.17,-37.09,-37.57,0,*75
1506665121.64,27465,15.19,74484.3,6.17,-37.45,-38.05,0,*74
1506665122.93,27466,15.19,74488.0,6.17,-37.63,-38.23,0,*77
1506665124.13,27467,15.19,74486.8,6.15,-37.45,-37.87,0,*71
1506665125.42,27468,15.19,74486.3,6.17,-37.21,-37.81,0,*78
1506665126.63,27469,15.19,74486.0,6.15,-37.27,-37.87,0,*7B
1506665127.89,27470,15.19,74490.3,6.17,-37.69,-38.35,0,*7D
1506665129.14,27471,15.19,74490.3,6.17,-37.45,-37.99,0,*7B
1506665130.38,27472,15.19,74484.3,6.17,-37.27,-37.87,0,*73
1506665131.64,27473,15.19,74490.0,6.17,-36.91,-37.57,0,*73
1506665132.87,27474,15.19,74486.3,6.17,-36.85,-37.57,0,*71
1506665134.1,27475,15.19,74486.5,6.17,-36.73,-37.27,0,*7E
1506665135.36,27476,15.19,74486.5,6.17,-36.91,-37.57,0,*76
1506665136.59,27477,15.19,74486.5,6.19,-36.85,-37.51,0,*7A
1506665137.8,27478,15.19,74486.0,6.19,-37.33,-37.75,0,*7F
1506665139.05,27479,15.19,74486.3,6.19,-37.51,-38.11,0,*77
1506665140.31,27480,15.19,74486.5,6.19,-37.51,-38.11,0,*71
1506665141.57,27481,15.19,74490.0,6.19,-37.39,-37.99,0,*71
1506665142.8,27482,15.19,74490.8,6.19,-37.75,-38.29,0,*7E
1506665144.04,27483,15.19,74488.5,6.19,-37.81,-38.55,0,*7F
1506665145.31,27484,15.19,74488.3,6.19,-37.81,-38.49,0,*75
1506665146.52,27485,15.19,74486.0,6.19,-37.75,-38.17,0,*74
1506665147.74,27486,15.19,74488.0,6.19,-37.57,-38.11,0,*71
1506665148.98,27487,15.19,74486.5,6.19,-37.57,-37.99,0,*7F
1506665150.24,27488,15.19,74488.0,6.19,-37.51,-37.99,0,*76
1506665151.47,27489,15.19,74488.0,6.19,-37.57,-37.99,0,*71
1506665152.73,27490,15.19,74490.3,6.17,-37.45,-37.99,0,*74
1506665153.95,27491,15.19,74488.5,6.15,-37.33,-37.93,0,*7C
1506665155.24,27492,15.19,74486.8,6.17,-37.09,-37.81,0,*77
1506665156.53,27493,15.19,74486.8,6.17,-37.21,-37.81,0,*7C
1506665157.76,27494,15.19,74486.8,6.19,-36.85,-37.39,0,*79
1506665159.02,27495,15.19,74488.8,6.19,-36.79,-37.39,0,*7B
1506665160.28,27496,15.19,74482.5,6.19,-36.79,-37.39,0,*78
1506665161.52,27497,15.19,74488.8,6.19,-36.85,-37.51,0,*74
1506665162.72,27498,15.19,74486.8,6.21,-36.97,-37.57,0,*75
1506665163.93,27499,15.19,74486.8,6.19,-36.67,-37.33,0,*72
1506665165.13,27500,15.19,74484.3,6.21,-36.67,-37.33,0,*78
1506665166.36,27501,15.19,74486.8,6.21,-36.97,-37.63,0,*73
1506665167.62,27502,15.19,74486.3,6.23,-36.55,-37.09,0,*70
1506665168.85,27503,15.19,74486.3,6.23,-36.55,-36.97,0,*77
1506665170.14,27504,15.19,74484.3,6.23,-36.61,-37.09,0,*71
1506665171.34,27505,15.19,74486.5,6.25,-36.73,-37.27,0,*79
1506665172.58,27506,15.19,74484.8,6.23,-36.73,-37.27,0,*7C
1506665173.81,27507,15.19,74488.0,6.25,-36.61,-37.15,0,*79
1506665175.07,27508,15.19,74486.0,6.25,-36.37,-37.09,0,*78
1506665176.3,27509,15.19,74488.8,6.25,-36.43,-36.91,0,*7A
1506665177.52,27510,15.19,74484.8,6.29,-36.49,-36.85,0,*71
1506665178.73,27511,15.19,74484.8,6.29,-36.31,-36.73,0,*76
1506665179.98,27512,15.19,74488.0,6.29,-36.49,-37.09,0,*76
1506665181.24,27513,15.19,74484.3,6.27,-36.55,-37.21,0,*7E
1506665182.49,27514,15.19,74484.5,6.29,-36.49,-36.91,0,*70
1506665183.72,27515,15.19,74484.0,6.29,-36.55,-37.21,0,*76
1506665184.95,27516,15.19,74488.0,6.29,-36.67,-37.21,0,*74
1506665186.15,27517,15.19,74484.8,6.29,-36.67,-37.03,0,*75
1506665187.38,27518,15.19,74484.3,6.29,-36.37,-36.73,0,*79
1506665188.64,27519,15.19,74486.0,6.31,-36.49,-37.15,0,*79
1506665189.86,27520,15.19,74484.3,6.31,-36.85,-37.45,0,*76
1506665191.12,27521,15.19,74484.8,6.31,-36.61,-37.03,0,*7F
1506665192.37,27522,15.19,74484.0,6.31,-36.49,-37.15,0,*71
1506665193.62,27523,15.19,74486.8,6.31,-36.61,-36.85,0,*72
1506665194.88,27524,15.19,74486.8,6.35,-36.43,-36.91,0,*74
1506665196.13,27525,15.19,74484.3,6.35,-36.43,-36.91,0,*75
1506665197.38,27526,15.19,74484.5,6.31,-36.79,-37.33,0,*72
1506665198.63,27527,15.19,74486.8,6.31,-36.49,-36.85,0,*7C
1506665199.86,27528,15.19,74488.0,6.35,-36.43,-36.97,0,*7E
1506665201.11,27529,15.19,74484.8,6.35,-36.61,-37.15,0,*74
1506665202.31,27530,15.19,74488.8,6.37,-37.15,-37.57,0,*7A
1506665203.54,27531,15.19,74486.5,6.37,-36.61,-37.15,0,*7F
1506665204.76,27532,15.19,74490.8,6.37,-36.79,-37.33,0,*71
1506665206.01,27533,15.19,74484.8,6.39,-36.55,-37.21,0,*73
1506665207.27,27534,15.19,74490.3,6.39,-37.45,-37.99,0,*77
1506665208.52,27535,15.19,74486.8,6.37,-37.69,-38.29,0,*72
1506665209.72,27536,15.19,74488.3,6.37,-37.33,-37.87,0,*75
1506665210.95,27537,15.19,74486.8,6.37,-37.09,-37.57,0,*70
1506665212.2,27538,15.19,74490.8,6.39,-37.27,-37.81,0,*76
1506665213.41,27539,15.19,74488.3,6.37,-37.27,-37.87,0,*7F
1506665214.66,27540,15.19,74484.5,6.37,-37.51,-38.29,0,*7B
1506665215.91,27541,15.19,74488.0,6.37,-37.51,-37.93,0,*74
1506665217.11,27542,15.19,74484.5,6.37,-37.33,-37.87,0,*76
1506665218.36,27543,15.19,74488.5,6.37,-37.51,-37.93,0,*76
1506665219.58,27544,15.19,74484.0,6.37,-37.69,-38.43,0,*78
1506665220.81,27545,15.19,74490.3,6.37,-37.57,-38.29,0,*78
1506665222.06,27546,15.19,74488.5,6.35,-37.39,-38.05,0,*7F
1506665223.3,27547,15.19,74486.3,6.37,-37.51,-38.11,0,*77
1506665224.53,27548,15.19,74488.5,6.37,-37.69,-38.43,0,*74
1506665225.76,27549,15.19,74488.0,6.37,-37.57,-38.29,0,*74
1506665226.98,27550,15.19,74488.0,6.31,-37.45,-38.17,0,*74
1506665228.26,27551,15.19,74484.5,6.35,-37.69,-38.49,0,*74
1506665229.52,27552,15.19,74484.0,6.35,-37.39,-37.87,0,*7F
1506665230.75,27553,15.19,74488.5,6.35,-37.27,-37.75,0,*7C
1506665232.03,27554,15.19,74488.0,6.35,-37.51,-38.11,0,*77
1506665233.25,27555,15.19,74488.0,6.35,-37.27,-37.75,0,*7A
1506665234.51,27556,15.19,74486.0,6.31,-36.85,-37.39,0,*7C
1506665235.77,27557,15.19,74488.0,6.35,-37.57,-38.23,0,*73
1506665237.02,27558,15.19,74486.0,6.37,-37.39,-37.93,0,*72
1506665238.25,27559,15.19,74488.3,6.35,-37.33,-37.87,0,*7E
1506665239.53,27560,15.19,74486.8,6.35,-37.09,-37.51,0,*76
1506665240.76,27561,15.19,74488.5,6.37,-37.09,-37.57,0,*73
1506665242.01,27562,15.19,74486.8,6.37,-37.09,-37.51,0,*76
1506665243.21,27563,15.19,74484.3,6.37,-37.15,-37.57,0,*7C
1506665244.49,27564,15.19,74486.5,6.39,-37.21,-37.69,0,*7F
1506665245.74,27565,15.19,74490.5,6.37,-36.91,-37.39,0,*7F
1506665246.99,27566,15.19,74490.8,6.37,-36.79,-37.39,0,*7A
1506665248.27,27567,15.19,74486.0,6.39,-37.09,-37.51,0,*7D
1506665249.52,27568,15.19,74490.3,6.39,-36.91,-37.27,0,*73
1506665250.75,27569,15.19,74490.3,6.37,-36.97,-37.39,0,*75
1506665251.98,27570,15.19,74486.3,6.39,-36.85,-37.27,0,*7F
1506665253.23,27571,15.19,74486.3,6.39,-36.49,-37.03,0,*78
1506665254.46,27572,15.19,74486.3,6.39,-36.85,-37.27,0,*7D
1506665255.68,27573,15.19,74486.3,6.39,-37.03,-37.45,0,*77
1506665256.92,27574,15.19,74484.3,6.41,-37.03,-37.63,0,*7B
1506665258.14,27575,15.19,74484.5,6.43,-36.97,-37.45,0,*70
1506665259.4,27576,15.19,74488.0,6.43,-36.85,-37.39,0,*7B
1506665260.65,27577,15.19,74488.0,6.41,-36.61,-37.21,0,*7B
1506665261.88,27578,15.19,74486.0,6.41,-36.61,-37.03,0,*74
1506665263.12,27579,15.19,74486.0,6.43,-36.79,-37.27,0,*78
1506665264.37,27580,15.19,74486.5,6.43,-36.61,-37.27,0,*77
1506665265.6,27581,15.19,74484.5,6.43,-37.03,-37.57,0,*74
1506665266.82,27582,15.19,74484.5,6.43,-37.03,-37.57,0,*77
1506665268.02,27583,15.19,74484.5,6.45,-37.15,-37.57,0,*77
1506665269.27,27584,15.19,74488.5,6.45,-36.79,-37.51,0,*7D
1506665270.52,27585,15.19,74484.0,6.45,-36.91,-37.51,0,*7A
1506665271.75,27586,15.19,74486.0,6.45,-37.57,-38.23,0,*78
1506665272.97,27587,15.19,74484.3,6.45,-37.15,-37.69,0,*7E
1506665274.22,27588,15.19,74486.8,6.45,-36.91,-37.51,0,*77
1506665275.5,27589,15.19,74484.5,6.47,-36.91,-37.39,0,*7A
1506665276.72,27590,15.19,74488.8,6.45,-36.91,-37.33,0,*7A
1506665277.97,27591,15.19,74486.5,6.45,-37.09,-37.51,0,*7F
1506665279.25,27592,15.19,74486.8,6.47,-36.61,-37.09,0,*7C
1506665280.49,27593,15.19,74486.3,6.47,-36.37,-36.97,0,*78
1506665281.69,27594,15.19,74488.3,6.49,-36.31,-36.85,0,*74
1506665282.9,27595,15.19,74484.5,6.49,-36.31,-36.73,0,*7C
1506665284.1,27596,15.19,74484.3,6.49,-36.31,-36.73,0,*7F
1506665285.35,27597,15.19,74488.8,6.51,-36.31,-36.79,0,*7D
1506665286.61,27598,15.19,74484.3,6.51,-36.49,-37.03,0,*71
1506665287.83,27599,15.19,74488.5,6.51,-36.97,-37.45,0,*71
1506665289.09,27600,15.19,74486.3,6.51,-37.81,-38.43,0,*7D
1506665290.35,27601,15.19,74490.5,6.51,-37.27,-37.93,0,*72
1506665291.6,27602,15.19,74488.0,6.51,-37.93,-38.61,0,*7C
1506665292.85,27603,15.19,74486.8,6.51,-37.27,-37.93,0,*70
1506665294.08,27604,15.19,74484.0,6.51,-37.45,-38.17,0,*70
1506665295.33,27605,15.19,74486.3,6.51,-37.27,-37.93,0,*76
1506665296.56,27606,15.19,74488.5,6.51,-37.03,-37.57,0,*7B
1506665297.79,27607,15.19,74486.8,6.51,-37.03,-37.57,0,*7A
1506665299.04,27608,15.19,74486.3,6.51,-37.09,-37.75,0,*7F
1506665300.3,27609,15.19,74490.3,6.51,-37.27,-37.93,0,*7A
1506665301.52,27610,15.19,74490.3,6.51,-37.45,-38.17,0,*75
1506665302.8,27611,15.19,74486.3,6.51,-37.63,-38.23,0,*77
1506665304.08,27612,15.19,74488.3,6.53,-37.21,-37.81,0,*77